Location: Aufkirchen
(47.9603°N, 11.3653°E)
Time: 04:54:06
(UTC+02:00)

ISS - Visible Passes

Search period start: 23 October 2020 00:00
Search period end: 01 November 2020 23:00
Orbit: 417 x 420 km, 51.6° (Epoch: 22 October)

Date Brightness Start Highest point End Pass type
(mag) Time Alt. Az. Time Alt. Az. Time Alt. Az.
23 Oct -1.8 06:52:12 10° SSW 06:55:07 28° SE 06:58:03 10° E visible
24 Oct -1.2 06:05:06 10° S 06:07:32 19° SE 06:09:58 10° E visible
25 Oct -0.9 04:19:31 12° SE 04:20:01 12° SE 04:21:24 10° ESE visible
25 Oct -3.4 05:52:56 10° SW 05:56:14 63° SSE 05:59:34 10° ENE visible
26 Oct -2.7 05:07:11 26° SSW 05:08:33 42° SSE 05:11:46 10° ENE visible
27 Oct -1.6 04:21:44 25° ESE 04:21:44 25° ESE 04:23:51 10° E visible
27 Oct -3.7 05:54:42 14° WSW 05:57:32 69° NNW 06:00:54 10° ENE visible
28 Oct -3.9 05:09:09 57° WSW 05:09:46 88° SSE 05:13:09 10° ENE visible
29 Oct -1.8 04:23:31 29° E 04:23:31 29° E 04:25:22 10° ENE visible
29 Oct -3.3 05:56:29 16° W 05:58:56 47° N 06:02:13 10° ENE visible
30 Oct -3.6 05:10:47 52° NW 05:11:07 55° NNW 05:14:26 10° ENE visible
31 Oct -1.6 04:25:03 26° ENE 04:25:03 26° ENE 04:26:42 10° ENE visible
31 Oct -3.0 05:58:00 16° WNW 06:00:25 42° N 06:03:39 10° ENE visible
01 Nov -3.2 05:12:14 41° NNW 05:12:34 43° N 05:15:49 10° ENE visible
